Погода в Лонгфорде

Ирландия     53°43′31″N   7°47′55″W
темп.,
°C
ветер,
м/с
пор.,
м/с
влажн.,
%
обл.,
%
осадки,
мм/ч
давл.,
гПа
погр.,
м
12 августа, пт
пт1201:00+14св33790 0.0 102351
04:00+13всв22950 0.0 102230
07:00+13св22910 0.0 102127
10:00+19всв23700 0.0 1021326
13:00+24в23551 0.0 1020805
16:00+26в22500 0.0 10191099
19:00+24вюв34680 0.0 1018185
22:00+17всв22750 0.0 101919
13 августа, сб
сб1301:00+15св22850 0.0 101819
04:00+14св22910 0.0 101821
07:00+14ссв238399 0.0 101750
10:00+20св34621 0.0 1017293
13:00+24всв33542 0.0 1016705
16:00+26всв23524 0.0 10151079
19:00+24в357010 0.0 1014253
22:00+17всв118286 0.0 101411
14 августа, вс
вс1401:00+16ссв22825 0.0 101311
04:00+15ссв229078 0.0 101212
07:00+15ссз2291100 0.0 101151
10:00+21с127378 0.0 1010353
13:00+25ссз115953 0.0 1009912
16:00+25з325899 0.0 1007989
19:00+17сз5991100 2.9 1007262
22:00+16в2394100 0.6 100774
15 августа, пн
пн1501:00+15св2398100 1.0 100697
04:00+14с119896 0.0 100411
07:00+14сз129875 0.0 100598
10:00+17сз228655 0.0 1005440
13:00+21сз117095 0.4 10051055
16:00+17сз249099 2.9 1005203
19:00+16ссз3892100 4.7 1006486
22:00+15с3995100 0.6 1007459
16 августа, вт
вт1601:00+14ссз4995100 1.4 1009568
04:00+13с499286 0.6 1009601
07:00+13с41088100 0.7 1010771
10:00+14с597899 0.0 1011898
13:00+18с575856 0.0 10121375
16:00+19ссв565225 0.0 10121608
19:00+17с47621 0.0 1013881
22:00+11с37857 0.0 1015174